Roberto Castillo

Chefscout - Estudiantes de Caracas
22 Apr 2027
Donnerstag
Verarbeitung

Persönlichkeit

Anpassungsfähigkeit (7) Ehrgeiz (6) Kontroverse (4) Loyalität (17) Druck (11) Professionalität (3) Fairness (1) Temperament (2)

Profil

Trainerstil Demokratisch
Lizenz Kontinentale Pro
Entschlossenheit 2
Menschenführung 4
Motivation 2
Disziplin 5
Arbeitszufriedenheit
49%
Ermüdung
0%
Rolle Chefscout
Gehalt 27.1K p/W
Vertrag 14.03.2029

Leistung

Verhalten Normal
Trainingseffektivität
15%
Spielerentwicklung
10%
Verletzungsprävention
10%
Taktische Umsetzung
25%

Aktuell beobachtet

89
Spieler Verein Status Fähigkeit Vertrauen Beobachtet Zuletzt beobachtet Letzte Stimme
José Urbina Metropolitanos Aktiv 75 / 90 41% 1 14.12.2026 -
Tomás Romero Unión de Santa Fe Aktiv 104 / 101 40% 2 07.12.2026 -
Justin-Noël Kalumba Mallorca Aktiv 99 / 140 40% 2 29.11.2026 Mehr Infos nötig
Louis Appéré Cambridge United Aktiv 93 / 113 40% 1 29.11.2026 Mehr Infos nötig
Fabricio Rojas Gimnasia y Tiro Aktiv 105 / 103 40% 3 28.11.2026 Beobachten
Ildi Gruda Egnatia Rrogozhinë Aktiv 119 / 89 40% 1 26.11.2026 -
Jonah James Mosta Aktiv 78 / 105 40% 1 26.11.2026 -
Patrick Schmidt Tarxien Rainbows Aktiv 121 / 101 40% 1 25.11.2026 -
Wesley Pomba Veres Aktiv 110 / 128 40% 2 24.11.2026 -
Klejdi Daci Teuta Durrës Aktiv 121 / 107 40% 1 24.11.2026 -
Marcos Camarda Santiago Wanderers Aktiv 115 / 117 40% 2 23.11.2026 -
Kenan Dervišagić Floriana Aktiv 118 / 121 40% 2 23.11.2026 -
Andrey Okladnikov Yenisey Aktiv 92 / 72 40% 1 21.11.2026 -
Dmitry Tsypchenko Torpedo Moscow Aktiv 95 / 94 40% 1 20.11.2026 -
Pedro Lucas Olimpija Ljubljana Aktiv 97 / 87 40% 1 20.11.2026 -
Migran Ageyan Ufa Aktiv 106 / 118 40% 1 18.11.2026 -
Marcus Browne AFC Wimbledon Aktiv 102 / 118 40% 1 18.11.2026 -
Ilja Azyavin Arsenal Tula Aktiv 111 / 90 40% 1 17.11.2026 -
Ekain Orobengoa Real Sociedad Aktiv 122 / 99 40% 4 14.11.2026 -
Nikita Kireev Dinamo Vologda Aktiv 107 / 102 40% 1 14.11.2026 -
Dani Gómez Zaragoza Aktiv 111 / 109 40% 1 13.11.2026 -
Pavel Meleshin Sochi Aktiv 134 / 124 40% 1 11.11.2026 -
Daniil Kondrakov KDV Tomsk Aktiv 104 / 103 40% 1 11.11.2026 -
Elías Ovelar Dinamo Brest Aktiv 105 / 92 40% 2 08.11.2026 -
Sonny Perkins Leyton Orient Aktiv 83 / 99 40% 1 08.11.2026 -
Lee Bonis Chesterfield Aktiv 93 / 88 40% 1 07.11.2026 -
Gaspar Duarte Rosario Central Aktiv 108 / 110 40% 1 07.11.2026 -
Tobías Ganduglia Independiente Rivadavia Aktiv 105 / 93 40% 1 03.11.2026 -
Thomas Oliveri Defensa y Justicia Aktiv 97 / 111 40% 1 02.11.2026 -
Diego Valencia Universidad Catolica Aktiv 108 / 97 40% 1 02.11.2026 -
Tomás Orqueida Mattersburg Aktiv 104 / 106 40% 1 01.11.2026 -
Breel Embolo Atlanta United FC Aktiv 159 / 137 40% 1 30.10.2026 -
Ruben Silva-Richards Dinamo City Aktiv 100 / 113 40% 1 29.10.2026 -
Axel Pérez NK Domzale Aktiv 119 / 90 40% 1 28.10.2026 -
Carlos Torres Orenburg Aktiv 74 / 80 40% 1 27.10.2026 -
Joaquín Zappacosta Morón Aktiv 80 / 102 40% 1 27.10.2026 -
Alejandro Cantero Huesca Aktiv 127 / 96 40% 1 26.10.2026 -
Pedro Cejas Zabbar St. Patrick Aktiv 109 / 74 40% 1 26.10.2026 -
Job Ochieng Real Sociedad Aktiv 126 / 120 40% 2 25.10.2026 -
Mario Galeano Los Andes Aktiv 118 / 125 40% 2 25.10.2026 -
Juan Román Zarza BK Hacken Aktiv 110 / 94 40% 2 24.10.2026 -
Joaquín Rivero Instituto Aktiv 80 / 95 40% 1 24.10.2026 -
Germán Berterame Inter Miami CF Aktiv 112 / 140 40% 1 23.10.2026 -
Jere Vrcić Birkirkara Aktiv 75 / 82 40% 1 23.10.2026 -
Georgy Melkadze Akhmat Grozny Aktiv 137 / 131 40% 1 21.10.2026 -
Luka Kurtovic NK Domzale Aktiv 117 / 145 40% 2 19.10.2026 -
Edarlyn Reyes Arsenal Tula Aktiv 103 / 111 40% 1 19.10.2026 -
Tio Cipot NK Maribor Aktiv 109 / 96 40% 1 10.10.2026 -
Ignacio Giacinti Patronato Aktiv 89 / 104 40% 1 08.10.2026 -
Jay Stansfield Birmingham Aktiv 114 / 138 40% 1 07.10.2026 -
Kamran Aliev SKA Khabarovsk Aktiv 87 / 84 40% 1 06.10.2026 -
Carlos Fernández Sliema Wanderers Aktiv 72 / 81 40% 2 01.10.2026 -
Anderson Gutiérrez Chelyabinsk Aktiv 65 / 105 40% 1 01.10.2026 -
José Rivas Gamboa Trujillanos Aktiv 98 / 94 40% 1 29.09.2026 -
Alberto Benítez Villalba Levadia Aktiv 89 / 76 40% 1 29.09.2026 -
Gonzalo Tapia Palestino Aktiv 110 / 112 40% 2 25.09.2026 -
Abdoul Kialy Koné Ceuta Aktiv 114 / 113 40% 1 25.09.2026 -
Ricardo Solbes Unión de Santa Fe Aktiv 100 / 100 40% 1 22.09.2026 -
Ian Escobar Vélez Aktiv 98 / 103 40% 2 19.09.2026 -
Junior Paredes Trujillanos Aktiv 97 / 101 40% 1 19.09.2026 -
Lewis McCann Fleetwood Town Aktiv 99 / 103 40% 1 16.09.2026 -
Ignacio Sabatini Gimnasia y Esgrima Aktiv 108 / 115 40% 3 15.09.2026 -
Bautista La Licata Belgrano Aktiv 88 / 84 40% 1 15.09.2026 -
German Onugkha Rodina Aktiv 135 / 101 40% 1 13.09.2026 -
Sebastián Ybares Neftekhimik Aktiv 80 / 93 40% 1 12.09.2026 -
Juan Cruz Zurbriggen San Telmo Aktiv 102 / 103 40% 1 09.09.2026 -
Mojmír Chytil NK Maribor Aktiv 140 / 125 40% 1 08.09.2026 -
Macaulay Langstaff Millwall Aktiv 98 / 91 40% 1 08.09.2026 -
Maximiliano Osuna Racing Club Aktiv 70 / 88 40% 2 06.09.2026 -
Freddy Borja Llaneros Aktiv 104 / 117 40% 3 06.09.2026 -
Agustín Bianciotti Metropolitanos Aktiv 90 / 104 40% 1 05.09.2026 -
Adalberto Peñaranda Deportivo Tachira Aktiv 126 / 125 40% 1 03.09.2026 -
Kyle Joseph Middlesbrough Aktiv 110 / 97 40% 1 03.09.2026 -
Martín Garnerone Estudiantes Aktiv 114 / 103 40% 1 31.08.2026 -
Florian Bianchini Swansea City Aktiv 97 / 112 40% 1 29.08.2026 -
Genaro Rossi San Martín SJ Aktiv 102 / 122 40% 1 25.08.2026 -
Jesús Amarilla Naftan Aktiv 108 / 111 40% 1 24.08.2026 -
Sam Nombe Milton Keynes Dons Aktiv 90 / 96 40% 1 24.08.2026 -
Bojan Radulović Huddersfield Town Aktiv 126 / 106 40% 1 20.08.2026 -
Jonathan Cañete Portuguesa Aktiv 123 / 109 40% 1 15.08.2026 -
Sergio Riffo NK Zavrc Aktiv 79 / 114 40% 1 12.08.2026 -
Marcos Cuenca Zaragoza Aktiv 103 / 128 40% 1 12.08.2026 -
Bruno Hernández Cerro Largo Aktiv 101 / 83 40% 1 10.08.2026 -
Ramiro Ruiz Rodríguez Atlético Tucumán Aktiv 122 / 124 40% 1 04.08.2026 -
Agustín Páez Maipú Aktiv 97 / 108 40% 1 03.08.2026 -
Mario García Racing Santander Aktiv 107 / 132 40% 1 03.08.2026 -
Santiago Rodríguez Huracán Aktiv 75 / 92 40% 1 03.08.2026 -
Javi Villar Albacete Aktiv 103 / 133 40% 1 02.08.2026 -
Franco Camargo Gimnasia y Esgrima Aktiv 122 / 113 40% 1 02.08.2026 -